Regional Weather Roundup
Issued by NWS

Home | Current Version | Previous Version | Graphics & Text | Print | Product List | Glossary On
Versions: 1 2 3 4 5 6 7 8 9 10 11 12 13 14 15 16 17 18 19 20 21 22 23 24 25 26 27 28 29 30 31 32 33 34 35 36 37 38 39 40 41 42 43 44 45 46 47 48 49 50
000
ASUS43 KBIS 020701
RWRND

NORTH DAKOTA REGIONAL WEATHER ROUNDUP
NATIONAL WEATHER SERVICE BISMARCK ND
200 AM CDT THU APR 02 2015

NOTE: "FAIR" INDICATES FEW OR NO CLOUDS BELOW 12,000 FEET WITH NO
SIGNIFICANT WEATHER AND/OR OBSTRUCTIONS TO VISIBILITY.


NDZ001>003-009>011-017-020800-
NORTHWEST NORTH DAKOTA

CITY           SKY/WX    TMP DP  RH WIND       PRES   REMARKS
WILLISTON      CLEAR     38  23  55 W13       29.64S
MINOT          CLEAR     39  23  52 SW15      29.57F
MINOT AFB      CLEAR     38  26  64 SW16      29.56F
$$

NDZ018>021-031>035-040>046-020800-
SOUTHWEST NORTH DAKOTA

CITY           SKY/WX    TMP DP  RH WIND       PRES   REMARKS
BISMARCK       CLEAR     37  22  54 W7        29.70S
DICKINSON      CLEAR     33  19  56 SW15      29.69F
GARRISON         N/A     36  26  67 SW14      29.63F
HETTINGER ARPT CLEAR     29  18  63 W8        29.77F
$$

NDZ004>008-012>016-024-026-027-054-020800-
NORTHEAST NORTH DAKOTA

CITY           SKY/WX    TMP DP  RH WIND       PRES   REMARKS
GRAND FORKS    PTCLDY    36  29  75 W8        29.58S
GRND FRKS AFB  PTCLDY    40  29  65 W10       29.59R
DEVILS LAKE    CLEAR     36  27  69 SW10      29.57F
$$

NDZ022-023-025-028>030-036>039-047>053-020800-
SOUTHEAST NORTH DAKOTA

CITY           SKY/WX    TMP DP  RH WIND       PRES   REMARKS
FARGO          PTCLDY    40  29  64 SW9       29.68R
JAMESTOWN      PTCLDY    39  25  57 W10       29.67R
$$




USA.gov is the U.S. government's official web portal to all federal, state and local government web resources and services.